Estación de El Carmen
Ultimos registro cada 15 minutos 86
| N° | Estación | Fecha / Hora | Temperatura | Humedad | Lluvia | Velocidad | Dirección | Radiación | Presion |
| 86 | El Carmen | 02-09-2026 21:15 | 13,2 | 85,8 | 0 | 1 | 145 | 0,6 | 979,8 |
| 85 | El Carmen | 02-09-2026 21:00 | 13,2 | 85,3 | 0 | 1,5 | 146 | 0,6 | 979,9 |
| 84 | El Carmen | 02-09-2026 20:45 | 13,3 | 85,6 | 0 | 1,5 | 149 | 0,6 | 979,8 |
| 83 | El Carmen | 02-09-2026 20:30 | 13,3 | 85,1 | 0 | 1,5 | 142 | 0,6 | 979,6 |
| 82 | El Carmen | 02-09-2026 20:15 | 13,4 | 84,6 | 0 | 2 | 145 | 0,6 | 979,6 |
| 81 | El Carmen | 02-09-2026 20:00 | 13,5 | 84 | 0 | 2 | 143 | 0,6 | 979,3 |
| 80 | El Carmen | 02-09-2026 19:45 | 13,7 | 83,1 | 0 | 2,5 | 150 | 0,6 | 979,2 |
| 79 | El Carmen | 02-09-2026 19:30 | 13,9 | 82,9 | 0 | 2 | 139 | 0,6 | 979 |
| 78 | El Carmen | 02-09-2026 19:15 | 14 | 82,7 | 0 | 1,5 | 133 | 0,6 | 978,7 |
| 77 | El Carmen | 02-09-2026 19:00 | 14,1 | 81,5 | 0 | 3 | 142 | 0,6 | 978,4 |
| 76 | El Carmen | 02-09-2026 18:45 | 14,3 | 81,4 | 0 | 3 | 146 | 0,6 | 978,3 |
| 75 | El Carmen | 02-09-2026 18:30 | 14,6 | 80,1 | 0 | 3,5 | 146 | 0,6 | 978,2 |
| 74 | El Carmen | 02-09-2026 18:15 | 15,1 | 78,9 | 0 | 3 | 149 | 1,9 | 977,7 |
| 73 | El Carmen | 02-09-2026 18:00 | 15,7 | 77 | 0 | 3,5 | 154 | 10,6 | 977,4 |
| 72 | El Carmen | 02-09-2026 17:45 | 16,2 | 74,2 | 0 | 2,5 | 163 | 10,6 | 977,1 |
| 71 | El Carmen | 02-09-2026 17:30 | 18,2 | 62,3 | 0 | 0,5 | 191 | 28,1 | 976,6 |
| 70 | El Carmen | 02-09-2026 17:15 | 18,8 | 59,3 | 0 | 0 | 168 | 58,1 | 976,3 |
| 69 | El Carmen | 02-09-2026 17:00 | 19,2 | 59,4 | 0 | 0 | 138 | 78,1 | 976,4 |
| 68 | El Carmen | 02-09-2026 16:45 | 19,6 | 58 | 0 | 0 | 136 | 138,1 | 976,2 |
| 67 | El Carmen | 02-09-2026 16:30 | 19,5 | 59,1 | 0 | 0 | 133 | 148,1 | 976,4 |
| 66 | El Carmen | 02-09-2026 16:15 | 19,4 | 57,3 | 0 | 0 | 132 | 154,4 | 976,3 |
| 65 | El Carmen | 02-09-2026 16:00 | 20,5 | 57,9 | 0 | 0 | 136 | 358,1 | 976,2 |
| 64 | El Carmen | 02-09-2026 15:45 | 19,2 | 58,4 | 0 | 0 | 157 | 154,4 | 976,3 |
| 63 | El Carmen | 02-09-2026 15:30 | 19,7 | 58,2 | 0 | 0 | 153 | 319,4 | 976,2 |
| 62 | El Carmen | 02-09-2026 15:15 | 18,9 | 59,6 | 0 | 0,5 | 139 | 361,9 | 976,3 |
| 61 | El Carmen | 02-09-2026 15:00 | 19,4 | 60,1 | 0 | 0,5 | 128 | 258,1 | 976,3 |
| 60 | El Carmen | 02-09-2026 14:45 | 19,4 | 62,5 | 0 | 0,5 | 112 | 281,9 | 976,2 |
| 59 | El Carmen | 02-09-2026 14:30 | 20,9 | 62,6 | 0 | 0 | 125 | 735,6 | 976 |
| 58 | El Carmen | 02-09-2026 14:15 | 19,9 | 66 | 0 | 0 | 133 | 718,1 | 976,4 |
| 57 | El Carmen | 02-09-2026 14:00 | 18,7 | 68,6 | 0 | 0 | 145 | 414,4 | 976,6 |
| 56 | El Carmen | 02-09-2026 13:45 | 17,8 | 69 | 0 | 0 | 167 | 293,1 | 976,7 |
| 55 | El Carmen | 02-09-2026 13:30 | 17 | 71,2 | 0 | 0 | 147 | 279,4 | 976,8 |
| 54 | El Carmen | 02-09-2026 13:15 | 16,5 | 71,9 | 0 | 0 | 126 | 273,1 | 977,1 |
| 53 | El Carmen | 02-09-2026 13:00 | 15,9 | 73,1 | 0 | 0 | 133 | 220,6 | 977 |
| 52 | El Carmen | 02-09-2026 12:45 | 15,7 | 72,7 | 0 | 0,5 | 138 | 235,6 | 977,1 |
| 51 | El Carmen | 02-09-2026 12:30 | 15,4 | 72,4 | 0 | 1,5 | 139 | 279,4 | 977,5 |
| 50 | El Carmen | 02-09-2026 12:15 | 15,4 | 74,9 | 0 | 2 | 135 | 318,1 | 977,8 |
| 49 | El Carmen | 02-09-2026 12:00 | 15,1 | 75,7 | 0 | 2,5 | 154 | 260,6 | 978,1 |
| 48 | El Carmen | 02-09-2026 11:45 | 14,7 | 76,8 | 0 | 3 | 149 | 238,1 | 977,9 |
| 47 | El Carmen | 02-09-2026 11:30 | 14,8 | 76,7 | 0 | 3 | 157 | 539,4 | 977,7 |
| 46 | El Carmen | 02-09-2026 11:15 | 14,4 | 79,5 | 0 | 2 | 150 | 245,6 | 977,4 |
| 45 | El Carmen | 02-09-2026 11:00 | 14,9 | 77,6 | 0 | 1,5 | 142 | 239,4 | 977 |
| 44 | El Carmen | 02-09-2026 10:45 | 14,2 | 79 | 0 | 1 | 136 | 221,9 | 976,9 |
| 43 | El Carmen | 02-09-2026 10:30 | 13,7 | 80,9 | 0 | 1 | 147 | 180,6 | 976,9 |
| 42 | El Carmen | 02-09-2026 10:15 | 13,4 | 80,8 | 0 | 1 | 142 | 155,6 | 976,9 |
| 41 | El Carmen | 02-09-2026 10:00 | 13,4 | 82,9 | 0 | 0,5 | 133 | 233,1 | 976,8 |
| 40 | El Carmen | 02-09-2026 09:45 | 12,8 | 82,7 | 0 | 1 | 119 | 178,1 | 977 |
| 39 | El Carmen | 02-09-2026 09:30 | 12,5 | 85,4 | 0 | 1 | 125 | 164,4 | 977,1 |
| 38 | El Carmen | 02-09-2026 09:15 | 11,9 | 85,3 | 0 | 1 | 138 | 85,6 | 977,6 |
| 37 | El Carmen | 02-09-2026 09:00 | 12 | 84,7 | 0 | 0,5 | 156 | 59,4 | 977,5 |
| 36 | El Carmen | 02-09-2026 08:45 | 11,7 | 86,6 | 0 | 0 | 154 | 78,1 | 977,3 |
| 35 | El Carmen | 02-09-2026 08:30 | 11,1 | 88,1 | 0 | 0 | 140 | 39,4 | 977 |
| 34 | El Carmen | 02-09-2026 08:15 | 10,9 | 88,4 | 0 | 0 | 132 | 28,1 | 976,7 |
| 33 | El Carmen | 02-09-2026 08:00 | 10,8 | 89,2 | 0 | 0 | 129 | 15,6 | 976,9 |
| 32 | El Carmen | 02-09-2026 07:45 | 10,8 | 88,8 | 0 | 0,5 | 128 | 11,9 | 977 |
| 31 | El Carmen | 02-09-2026 07:30 | 11 | 87,6 | 0 | 1 | 139 | 4,4 | 977 |
| 30 | El Carmen | 02-09-2026 07:15 | 11,2 | 86,6 | 0 | 1 | 142 | 1,9 | 976,6 |
| 29 | El Carmen | 02-09-2026 07:00 | 11,2 | 86,1 | 0 | 0 | 138 | 0,6 | 976,3 |
| 28 | El Carmen | 02-09-2026 06:45 | 11,2 | 87 | 0 | 0,5 | 133 | 0,6 | 976,2 |
| 27 | El Carmen | 02-09-2026 06:30 | 10,7 | 89,5 | 0 | 0 | 122 | 0,6 | 975,9 |
| 26 | El Carmen | 02-09-2026 06:15 | 10,7 | 89,5 | 0 | 0,5 | 125 | 0,6 | 975,5 |
| 25 | El Carmen | 02-09-2026 06:00 | 10,5 | 89,5 | 0 | 0 | 133 | 0,6 | 975,4 |
| 24 | El Carmen | 02-09-2026 05:45 | 10,7 | 89,2 | 0 | 1 | 133 | 0,6 | 975,4 |
| 23 | El Carmen | 02-09-2026 05:30 | 11,4 | 88,1 | 0 | 1 | 125 | 0,6 | 975,3 |
| 22 | El Carmen | 02-09-2026 05:15 | 11,2 | 88,6 | 0 | 1 | 128 | 0,6 | 975,2 |
| 21 | El Carmen | 02-09-2026 05:00 | 11,4 | 88,6 | 0 | 0 | 133 | 0,6 | 975,1 |
| 20 | El Carmen | 02-09-2026 04:45 | 11,5 | 88,5 | 0 | 0 | 157 | 0,6 | 975,3 |
| 19 | El Carmen | 02-09-2026 04:30 | 12 | 87,8 | 0 | 0,5 | 159 | 0,6 | 975,3 |
| 18 | El Carmen | 02-09-2026 04:15 | 11,8 | 88,6 | 0 | 0 | 125 | 0,6 | 975,1 |
| 17 | El Carmen | 02-09-2026 04:00 | 11,3 | 89,6 | 0 | 0 | 111 | 0,6 | 974,9 |
| 16 | El Carmen | 02-09-2026 03:45 | 12 | 87,4 | 0 | 0 | 110 | 0,6 | 975,1 |
| 15 | El Carmen | 02-09-2026 03:30 | 12,2 | 87,3 | 0 | 0 | 111 | 0,6 | 975,5 |
| 14 | El Carmen | 02-09-2026 03:15 | 12,4 | 86,4 | 0 | 0 | 112 | 0,6 | 975,8 |
| 13 | El Carmen | 02-09-2026 03:00 | 12,5 | 85,9 | 0 | 0 | 115 | 0,6 | 976,1 |
| 12 | El Carmen | 02-09-2026 02:45 | 12,8 | 84,5 | 0 | 1 | 119 | 0,6 | 976 |
| 11 | El Carmen | 02-09-2026 02:30 | 12,9 | 83,5 | 0 | 0,5 | 143 | 0,6 | 976 |
| 10 | El Carmen | 02-09-2026 02:15 | 13,3 | 82,8 | 0 | 1 | 138 | 0,6 | 976 |
| 9 | El Carmen | 02-09-2026 02:00 | 13,2 | 84,2 | 0 | 1 | 121 | 0,6 | 976,1 |
| 8 | El Carmen | 02-09-2026 01:45 | 13,6 | 82,1 | 0 | 1,5 | 128 | 0,6 | 975,7 |
| 7 | El Carmen | 02-09-2026 01:30 | 14 | 81,1 | 0 | 2 | 138 | 0,6 | 976,1 |
| 6 | El Carmen | 02-09-2026 01:15 | 14 | 82 | 0 | 1,5 | 128 | 0,6 | 976,2 |
| 5 | El Carmen | 02-09-2026 01:00 | 14,1 | 82,1 | 0 | 1 | 117 | 0,6 | 976,2 |
| 4 | El Carmen | 02-09-2026 00:45 | 14 | 82,9 | 0 | 0 | 150 | 0,6 | 976,3 |
| 3 | El Carmen | 02-09-2026 00:30 | 13,8 | 83,4 | 0 | 0 | 154 | 0,6 | 976,3 |
| 2 | El Carmen | 02-09-2026 00:15 | 14,4 | 80,6 | 0 | 0 | 154 | 0,6 | 976,1 |
| 1 | El Carmen | 02-09-2026 00:00 | 14,6 | 80,5 | 0 | 0 | 154 | 0,6 | 976,1 |